Terug naar catalogus

STARLINK-37156

ActiefCommunicatieVLEO
NORAD 68263·PAYLOAD·🇺🇸 United States

Gelanceerd Mar 19, 2026 vanaf Vandenberg Space Force Base

Loading…

Volgende Passages (komende 24 uur)

TLE

VersSource: CelesTrak SupGP

Epoch: Sep 14, 2026, 21:31 UTC

1 68263C 26055B   26257.89701389 -.00053624  00000+0 -15838-2 0  2575
2 68263  53.1578 157.6635 0001284  93.4533  78.0947 15.34427365    17

Volg STARLINK-37156 in realtime met AllMySat

Download on the App Store